Flag for Denmark Weather past 2 weeks in Aarhus, Denmark

Now
52 °F

Passing clouds.


Feels Like: 47 °F
Forecast: 39 / 50 °F
Wind: 14 mph from Southwest

Location: Tirstrup


UV Index: 0 (Low)

Visibility: N/A


Pressure: 29.98 "Hg

Humidity: 54%

Dew point: 36 °F

Location of AarhusLocation

Historic Weather in Aarhus

°F

Aarhus temperature yesterday

Maximum temperature yesterday: 54 °F (at 1:20 PM)
Minimum temperature yesterday: 30 °F (at 4:50 AM)
Average temperature yesterday: 44 °F

Past Weeks' High & Low Weather Summary

 TemperatureHumidityPressure
High57 °F (Apr 6, 2:20 PM)94% (Apr 6, 10:50 AM)30.45 "Hg (Apr 6, 10:50 AM)
Low30 °F (Apr 16, 4:50 AM)26% (Apr 16, 1:20 PM)29.47 "Hg (Apr 14, 5:50 AM)
Average46 °F73%29.94 "Hg
* Reported Apr 2 10:20 AM — Apr 17 10:50 AM, Aarhus, Weather by CustomWeather, © 2014

Note: Actual official high and low records may vary slightly from our data, if they occured in-between our weather recording intervals... More about our weather records

Advertising

Historic Weather Conditions — Data for Previous 24 hours

 ConditionsComfort  
Time TempWeatherWind HumidityBarometerVisibility
10:50 AM
Apr 17
52 °FScattered clouds.12 mph54%29.98 "HgN/A
10:20 AM50 °FPartly sunny.10 mph58%30.01 "HgN/A
9:20 AM48 °FPassing clouds.10 mph62%30.04 "HgN/A
8:20 AM48 °FPartly sunny.10 mph58%30.07 "HgN/A
7:50 AM46 °FPartly sunny.9 mph62%30.09 "HgN/A
7:20 AM46 °FPartly sunny.8 mph62%30.09 "HgN/A
6:50 AM45 °FPassing clouds.9 mph66%30.12 "HgN/A
6:20 AM45 °FPassing clouds.6 mph66%30.15 "HgN/A
5:50 AM45 °FPassing clouds.6 mph66%30.15 "HgN/A
5:20 AM45 °FPassing clouds.6 mph61%30.18 "HgN/A
4:50 AM45 °FPassing clouds.6 mph61%30.18 "HgN/A
4:20 AM45 °FPassing clouds.3 mph61%30.21 "HgN/A
3:50 AM45 °FPassing clouds.5 mph61%30.21 "HgN/A
3:20 AM43 °FPassing clouds.5 mph66%30.24 "HgN/A
2:50 AM43 °FPassing clouds.2 mph66%30.24 "HgN/A
2:20 AM43 °FPassing clouds.3 mph66%30.27 "HgN/A
1:50 AM43 °FOvercast.5 mph66%30.27 "HgN/A
1:20 AM43 °FPassing clouds.6 mph61%30.27 "HgN/A
12:50 AM43 °FPartly cloudy.6 mph57%30.30 "HgN/A
12:20 AM43 °FPassing clouds.5 mph57%30.30 "HgN/A
11:50 PM
Apr 16
41 °FPassing clouds.3 mph61%30.30 "HgN/A
11:20 PM41 °FPassing clouds.3 mph70%30.30 "HgN/A
10:50 PM41 °FPassing clouds.5 mph70%30.33 "HgN/A
10:20 PM45 °FPassing clouds.5 mph61%30.33 "HgN/A
9:50 PM45 °FPassing clouds.3 mph57%30.33 "HgN/A
9:20 PM45 °FQuite cool.3 mph53%30.33 "HgN/A
8:50 PM48 °FCool.5 mph46%30.33 "HgN/A
8:20 PM50 °FPassing clouds.5 mph40%30.33 "HgN/A
7:50 PM50 °FPassing clouds.6 mph40%30.33 "HgN/A
7:20 PM50 °FCool.6 mph37%30.33 "HgN/A
6:50 PM54 °FCool.7 mph33%30.33 "HgN/A
6:20 PM54 °FCool.6 mph33%30.36 "HgN/A
5:50 PM54 °FCool.8 mph30%30.36 "HgN/A
5:20 PM54 °FCool.8 mph30%30.36 "HgN/A
4:50 PM54 °FCool.8 mph30%30.36 "HgN/A
4:20 PM54 °FCool.8 mph30%30.39 "HgN/A
3:50 PM54 °FCool.8 mph33%30.39 "HgN/A
3:20 PM54 °FCool.8 mph26%30.39 "HgN/A
2:50 PM54 °FCool.8 mph26%30.42 "HgN/A
2:20 PM54 °FCool.7 mph30%30.42 "HgN/A
1:50 PM54 °FCool.8 mph30%30.42 "HgN/A
1:20 PM54 °FScattered clouds.8 mph26%30.42 "HgN/A
12:50 PM52 °FPassing clouds.6 mph30%30.42 "HgN/A
12:20 PM52 °FCool.8 mph35%30.42 "HgN/A
11:50 AM52 °FCool.7 mph32%30.45 "HgN/A
11:20 AM52 °FCool.8 mph32%30.45 "HgN/A
Weather by CustomWeather, © 2014

See weather overview